Total_Precipitation_Accumulation
1.04 1.12 1.00 0.82 0.73 0.71 0.66 0.63 0.70 0.77 0.82 0.85 0.80 0.72 0.66 0.69 0.81 0.96 1.00 1.07 1.15 1.20 1.25 1.26 1.25 1.27 1.32 1.26 1.35 1.48 1.64 1.79 1.65 1.54 1.46 1.41 1.34 1.25 1.11 0.91 0.79 0.70 0.63
1.38 1.53 1.39 1.02 0.82 0.72 0.58 0.54 0.61 0.72 0.81 0.84 0.77 0.69 0.65 0.69 0.82 0.96 1.08 1.28 1.41 1.36 1.28 1.20 1.12 1.19 1.28 1.28 1.37 1.38 1.45 1.67 1.67 1.63 1.61 1.63 1.54 1.36 1.26 1.12 0.91 0.79 0.75
1.23 1.41 1.23 0.88 0.67 0.58 0.52 0.53 0.65 0.77 0.82 0.81 0.79 0.79 0.87 0.95 1.06 1.16 1.21 1.35 1.38 1.29 1.25 1.18 1.12 1.14 1.17 1.25 1.35 1.38 1.36 1.43 1.58 1.60 1.61 1.70 1.68 1.48 1.31 1.18 1.07 1.08 0.99
0.80 0.99 0.90 0.71 0.59 0.51 0.50 0.53 0.57 0.63 0.71 0.78 0.91 1.07 1.17 1.23 1.26 1.29 1.26 1.21 1.18 1.09 1.03 0.98 1.02 1.13 1.19 1.19 1.17 1.19 1.23 1.33 1.42 1.47 1.54 1.66 1.72 1.65 1.45 1.32 1.29 1.24 1.14
0.70 0.88 0.80 0.66 0.57 0.49 0.43 0.46 0.53 0.63 0.72 0.87 1.02 1.11 1.10 1.12 1.19 1.26 1.24 1.12 1.04 0.95 0.87 0.73 0.73 0.90 1.03 1.07 0.99 1.03 1.09 1.17 1.20 1.29 1.38 1.53 1.63 1.73 1.55 1.36 1.30 1.36 1.30
0.64 0.84 0.83 0.70 0.58 0.46 0.43 0.50 0.63 0.70 0.79 0.94 1.02 1.02 0.97 0.78 0.75 0.81 0.84 0.86 0.88 0.85 0.76 0.71 0.69 0.70 0.71 0.72 0.74 0.78 0.85 0.94 1.06 1.23 1.34 1.41 1.45 1.56 1.66 1.61 1.54 1.50 1.47
0.63 0.79 0.87 0.80 0.70 0.62 0.54 0.63 0.71 0.77 0.86 0.92 0.93 0.92 0.89 0.86 0.72 0.60 0.56 0.62 0.68 0.70 0.70 0.74 0.60 0.52 0.57 0.56 0.58 0.56 0.55 0.58 0.71 0.94 1.16 1.24 1.37 1.41 1.65 1.69 1.72 1.80 1.79
0.66 0.82 0.89 0.88 0.86 0.89 0.83 0.82 0.87 0.94 0.96 1.00 0.97 0.94 0.98 0.94 0.81 0.66 0.56 0.50 0.58 0.64 0.67 0.71 0.70 0.67 0.66 0.69 0.67 0.61 0.54 0.50 0.52 0.59 0.79 1.03 1.25 1.49 1.59 1.66 1.74 1.80 1.80
0.70 0.85 0.95 1.02 1.09 1.09 1.07 1.10 1.18 1.24 1.17 1.17 1.18 1.16 1.17 1.15 0.97 0.71 0.59 0.57 0.67 0.69 0.70 0.71 0.72 0.71 0.71 0.62 0.62 0.62 0.61 0.61 0.51 0.51 0.59 0.80 0.98 1.08 1.31 1.52 1.66 1.59 1.52
0.96 1.04 1.21 1.38 1.51 1.56 1.54 1.49 1.47 1.52 1.41 1.33 1.26 1.23 1.22 1.26 1.17 0.81 0.65 0.69 0.85 0.88 0.90 0.83 0.69 0.62 0.59 0.51 0.53 0.66 0.63 0.62 0.67 0.62 0.53 0.58 0.70 0.84 0.92 1.03 1.26 1.40 1.30
1.18 1.28 1.47 1.74 1.87 1.79 1.75 1.66 1.59 1.61 1.63 1.57 1.44 1.40 1.41 1.41 1.32 0.96 0.81 0.86 1.00 1.10 1.09 1.04 0.96 0.79 0.59 0.53 0.51 0.58 0.62 0.66 0.77 0.81 0.78 0.76 0.85 0.96 0.93 0.89 1.00 1.16 1.19
1.32 1.52 1.73 1.93 1.89 1.75 1.89 1.83 1.79 1.83 1.83 1.76 1.70 1.62 1.59 1.58 1.41 1.07 0.81 0.86 1.03 1.21 1.28 1.23 1.14 0.91 0.69 0.61 0.56 0.55 0.52 0.52 0.61 0.73 0.77 0.75 0.79 0.89 0.97 0.96 0.99 1.03 1.07
1.44 1.56 1.68 1.75 1.90 2.05 2.10 2.03 1.96 1.93 1.92 1.81 1.75 1.67 1.60 1.60 1.55 1.11 0.87 0.91 1.01 1.13 1.33 1.35 1.12 0.90 0.75 0.61 0.57 0.57 0.51 0.47 0.57 0.63 0.64 0.64 0.65 0.76 0.96 1.09 1.13 1.14 1.11
1.31 1.31 1.40 1.55 1.67 1.81 2.04 2.10 2.05 1.95 1.92 1.88 1.77 1.66 1.61 1.66 1.65 1.32 1.03 0.98 1.03 1.05 1.16 1.21 1.08 0.92 0.80 0.70 0.65 0.62 0.58 0.59 0.67 0.69 0.70 0.74 0.76 0.84 0.95 1.05 1.15 1.19 1.15
1.28 1.26 1.26 1.33 1.49 1.58 1.71 1.81 1.83 1.83 1.64 1.56 1.46 1.40 1.40 1.47 1.45 1.21 1.06 1.07 1.17 1.22 1.19 1.22 1.24 1.12 1.00 0.90 0.86 0.88 0.88 0.83 0.77 0.79 0.83 0.86 0.85 0.87 0.93 1.01 1.08 1.12 1.06
1.28 1.23 1.24 1.28 1.41 1.50 1.55 1.51 1.33 1.27 1.08 0.96 0.93 0.88 0.90 0.96 1.06 0.94 0.83 0.93 1.10 1.16 1.11 1.14 1.24 1.24 1.16 1.08 1.03 1.04 1.04 0.99 0.93 0.94 0.93 0.92 0.91 0.89 0.92 0.97 1.01 1.02 0.99
1.33 1.24 1.17 1.14 1.20 1.26 1.36 1.51 1.56 1.33 1.09 0.90 0.79 0.68 0.66 0.73 0.82 0.83 0.78 0.84 0.95 0.99 0.98 1.03 1.13 1.19 1.15 1.13 1.08 1.06 1.02 1.05 1.07 1.03 0.99 0.99 0.98 0.93 0.91 0.94 0.95 1.01 1.00
1.26 1.17 1.08 1.09 1.13 1.16 1.23 1.35 1.50 1.52 1.29 0.97 0.83 0.72 0.62 0.61 0.65 0.69 0.70 0.74 0.83 0.87 0.88 0.94 1.00 1.05 1.07 1.09 1.09 1.09 1.06 1.07 1.06 1.04 1.00 0.99 0.99 0.94 0.94 0.95 0.92 0.94 1.00
1.14 1.06 0.98 1.01 1.04 1.03 1.09 1.17 1.28 1.35 1.27 1.11 0.94 0.75 0.61 0.52 0.54 0.58 0.58 0.65 0.80 0.85 0.84 0.88 0.90 0.92 0.96 1.00 1.01 1.05 1.05 1.01 1.00 1.03 1.00 0.96 0.98 0.99 0.98 0.98 0.98 0.98 0.99
1.05 0.87 0.81 0.87 0.93 0.95 1.02 1.09 1.13 1.19 1.18 1.12 1.00 0.76 0.57 0.51 0.59 0.65 0.65 0.75 0.85 0.85 0.82 0.85 0.81 0.80 0.86 0.92 0.97 1.02 1.02 1.03 1.05 1.02 1.00 0.98 0.97 0.97 0.95 0.95 0.99 1.00 1.00
0.98 0.83 0.63 0.62 0.72 0.79 0.88 0.97 1.00 1.02 1.05 1.04 0.89 0.63 0.44 0.41 0.54 0.69 0.79 0.83 0.84 0.83 0.78 0.73 0.70 0.72 0.77 0.83 0.87 0.90 0.94 1.01 0.99 0.99 1.02 0.99 0.94 0.95 0.94 0.95 0.94 0.95 0.98
0.92 0.84 0.68 0.60 0.63 0.68 0.76 0.87 0.90 0.87 0.87 0.86 0.76 0.57 0.42 0.39 0.52 0.65 0.72 0.72 0.71 0.73 0.70 0.66 0.64 0.68 0.71 0.74 0.79 0.84 0.89 0.91 0.93 0.96 0.98 0.98 0.97 0.96 0.96 1.00 0.99 0.97 0.98
0.88 0.80 0.69 0.62 0.64 0.63 0.66 0.77 0.78 0.76 0.73 0.68 0.62 0.55 0.47 0.49 0.56 0.65 0.67 0.66 0.66 0.64 0.63 0.62 0.59 0.59 0.64 0.67 0.69 0.75 0.81 0.81 0.83 0.86 0.92 0.96 0.97 0.98 1.01 1.02 0.97 0.93 0.94
0.81 0.76 0.65 0.60 0.62 0.67 0.67 0.70 0.66 0.63 0.60 0.57 0.53 0.52 0.51 0.55 0.59 0.60 0.61 0.60 0.60 0.56 0.54 0.55 0.56 0.56 0.59 0.64 0.63 0.63 0.65 0.68 0.68 0.72 0.77 0.82 0.85 0.92 0.98 1.01 0.97 0.93 0.98
0.78 0.79 0.69 0.59 0.58 0.61 0.62 0.64 0.62 0.60 0.56 0.50 0.49 0.50 0.52 0.54 0.55 0.58 0.58 0.55 0.51 0.50 0.46 0.47 0.54 0.54 0.50 0.51 0.51 0.51 0.55 0.53 0.52 0.58 0.67 0.76 0.77 0.84 0.95 0.98 0.97 0.97 1.03
0.71 0.73 0.67 0.58 0.53 0.53 0.55 0.62 0.64 0.59 0.54 0.47 0.47 0.49 0.47 0.44 0.44 0.46 0.45 0.43 0.43 0.43 0.43 0.44 0.47 0.48 0.47 0.45 0.43 0.44 0.42 0.39 0.40 0.48 0.53 0.62 0.71 0.77 0.85 0.90 0.89 0.96 1.03